SCP
0 0 -0 0 0 -0 -0 -0 -0 -0 -0 -0 -0 0 0 0 0 0 0 0 0 0
0 0 0 0 0 0 0 0 -0 -0 -0 -0 -0 0 0 -0 -0 0 0 0 0 -0
0 0 0 0 0 -0 -0 -0 -0 -0 0 -0 -0 -0 -0 -0 -0 -0 -0 0 0 0
-0 0 0 0 0 0 0 0 -0 -0 -0 0 0 0 0 0 0 -0 0 0 0 -0
0 0 0 0 0 0 0 0 0 0 0 0 0 0 0 0 0 0 0 0 0 0
0 0 0 0 0 0 0 0 0 0 0 0 0 0 0 0 0 0 0 0 0 0
0 0 0 0 0 0 0 0 0 0 0 0 0 0 0 0 0 0 0 0 0 0
0 0 0 0 0 0 0 0 0 0 0 0 0 0 0 0 0 0 0 0 0 0
1 0 0 1 1 1 1 0 0 0 0 0 1 0 0 0 0 0 0 0 0 0
1 1 1 1 1 1 1 1 1 1 1 0 0 0 0 0 0 0 0 0 0 1
1 1 1 2 1 1 1 1 1 0 0 0 0 0 0 0 0 0 0 0 0 0
0 0 0 0 1 0 0 0 0 0 0 0 0 0 0 0 0 0 0 0 0 0
0 0 0 0 0 0 0 0 0 0 0 0 0 0 0 0 0 0 0 0 0 0
0 0 0 0 0 0 0 0 0 0 0 0 0 0 0 0 0 0 0 0 0 0
Wind_Speed_500mb
38 38 35 30 34 31 24 24 25 28 22 17 18 18 19 19 20 20 18 16 15 11
45 44 40 36 33 32 31 28 27 27 28 28 24 23 22 23 23 20 20 22 22 21
45 44 39 42 40 35 34 38 34 32 32 30 30 28 27 25 28 27 24 22 24 24
42 42 40 41 37 33 32 35 35 33 29 28 30 33 33 30 29 31 31 29 26 25
43 42 42 43 39 38 34 34 37 34 31 30 35 35 34 33 34 34 33 30 30 28
43 43 41 41 40 38 37 35 37 37 34 36 33 38 36 34 30 31 31 31 32 32
42 44 44 40 41 38 34 34 37 40 35 35 35 35 37 36 32 33 32 32 31 30
43 42 43 45 45 41 39 36 33 36 39 40 38 38 41 42 39 36 35 32 30 30
51 45 45 47 47 44 41 41 37 37 34 31 35 37 39 41 43 38 37 35 32 32
57 52 48 48 48 44 42 40 36 31 33 34 34 34 33 34 38 35 33 30 29 28
58 59 52 49 47 42 39 38 38 33 32 35 38 35 34 31 31 31 29 28 28 27
54 62 52 53 41 38 40 42 37 34 29 31 37 40 32 28 22 23 26 33 32 32
42 47 53 44 51 39 39 42 45 48 43 34 35 45 47 34 31 39 42 38 36 37
33 22 38 42 40 39 30 25 23 25 25 24 24 22 32 34 33 37 38 34 34 36
Wind_Direction_500mb
218 219 222 225 222 216 224 221 214 214 223 239 241 238 236 242 252 263 272 286 291 305
227 224 223 222 221 232 233 226 230 230 237 243 244 241 243 243 246 261 272 273 279 281
233 227 227 226 229 237 242 237 238 242 243 243 240 243 248 253 247 250 259 267 269 271
231 226 228 227 233 241 242 232 240 247 241 243 244 243 244 248 256 257 255 259 267 266
231 232 233 226 234 231 238 245 239 240 245 249 252 247 249 255 263 258 255 260 266 263
226 230 236 237 229 236 243 235 234 236 243 252 253 248 249 252 259 251 250 258 268 265
222 225 230 234 231 234 236 237 237 232 239 242 243 246 250 258 262 251 253 259 261 261
225 226 228 228 228 231 235 239 236 241 244 245 248 248 249 256 258 254 256 256 257 262
234 230 225 228 229 230 237 244 248 250 252 251 253 256 261 260 260 256 258 258 260 265
239 236 231 228 227 232 241 244 245 252 256 259 262 266 270 266 254 249 255 257 263 269
240 234 229 227 227 232 237 238 238 247 255 255 254 262 265 259 251 249 244 249 264 273
242 226 220 217 217 232 238 241 238 239 266 265 257 254 250 250 251 258 265 268 273 269
233 220 233 225 219 228 245 251 254 254 260 262 263 249 236 236 264 276 279 270 268 264
247 241 232 223 216 220 224 232 241 240 248 263 267 266 254 252 260 271 264 263 264 260
Wind_Speed_850mb
38 38 35 30 34 31 24 24 25 28 22 17 18 18 19 19 20 20 18 16 15 11
45 44 40 36 33 32 31 28 27 27 28 28 24 23 22 23 23 20 20 22 22 21
45 44 39 42 40 35 34 38 34 32 32 30 30 28 27 25 28 27 24 22 24 24
42 42 40 41 37 33 32 35 35 33 29 28 30 33 33 30 29 31 31 29 26 25
43 42 42 43 39 38 34 34 37 34 31 30 35 35 34 33 34 34 33 30 30 28
43 43 41 41 40 38 37 35 37 37 34 36 33 38 36 34 30 31 31 31 32 32
42 44 44 40 41 38 34 34 37 40 35 35 35 35 37 36 32 33 32 32 31 30
43 42 43 45 45 41 39 36 33 36 39 40 38 38 41 42 39 36 35 32 30 30
51 45 45 47 47 44 41 41 37 37 34 31 35 37 39 41 43 38 37 35 32 32
57 52 48 48 48 44 42 40 36 31 33 34 34 34 33 34 38 35 33 30 29 28
58 59 52 49 47 42 39 38 38 33 32 35 38 35 34 31 31 31 29 28 28 27
54 62 52 53 41 38 40 42 37 34 29 31 37 40 32 28 22 23 26 33 32 32
42 47 53 44 51 39 39 42 45 48 43 34 35 45 47 34 31 39 42 38 36 37
33 22 38 42 40 39 30 25 23 25 25 24 24 22 32 34 33 37 38 34 34 36
Wind_Direction_850mb
218 219 222 225 222 216 224 221 214 214 223 239 241 238 236 242 252 263 272 286 291 305
227 224 223 222 221 232 233 226 230 230 237 243 244 241 243 243 246 261 272 273 279 281
233 227 227 226 229 237 242 237 238 242 243 243 240 243 248 253 247 250 259 267 269 271
231 226 228 227 233 241 242 232 240 247 241 243 244 243 244 248 256 257 255 259 267 266
231 232 233 226 234 231 238 245 239 240 245 249 252 247 249 255 263 258 255 260 266 263
226 230 236 237 229 236 243 235 234 236 243 252 253 248 249 252 259 251 250 258 268 265
222 225 230 234 231 234 236 237 237 232 239 242 243 246 250 258 262 251 253 259 261 261
225 226 228 228 228 231 235 239 236 241 244 245 248 248 249 256 258 254 256 256 257 262
234 230 225 228 229 230 237 244 248 250 252 251 253 256 261 260 260 256 258 258 260 265
239 236 231 228 227 232 241 244 245 252 256 259 262 266 270 266 254 249 255 257 263 269
240 234 229 227 227 232 237 238 238 247 255 255 254 262 265 259 251 249 244 249 264 273
242 226 220 217 217 232 238 241 238 239 266 265 257 254 250 250 251 258 265 268 273 269
233 220 233 225 219 228 245 251 254 254 260 262 263 249 236 236 264 276 279 270 268 264
247 241 232 223 216 220 224 232 241 240 248 263 267 266 254 252 260 271 264 263 264 260